Location: Marsån
(66.4167°N, 22.2833°E)
Time: 10:09:26
(UTC+00:00)

Cosmos 2112 Rocket - Pass Details

Date: 24 February 2024
Orbit: 754 x 786 km, 74.1° (Epoch: 15 April)

Event Time Altitude Azimuth Distance (km) Brightness Sun altitude
Rises 20:11:15 0° 319° (NW) 3,257 8.6 -27.4°
Reaches altitude 10° 20:13:38 10° 317° (NW) 2,332 7.5 -27.6°
Enters shadow 20:18:39 68° 256° (WSW) 840 4.1 -27.9°
